SR6NWB-11 Weather Reports


time (UTC)temp
F
wind
direction
speed
knots
gust
knots
rain 1hr
in
rain 24hr
in
rain mn
in
humidity
%
barometer
mb
20260507001947 51 0 0.0 0.0 0.00 0.00 0.00 96 1011.2
20260507001117 51 0 0.0 0.0 0.00 0.00 0.00 96 1011.2
20260507000122 51 0 0.0 0.0 0.00 0.00 0.00 96 1011.4
20260506235257 51 0 0.0 0.0 0.00 0.00 0.00 96 1011.7
20260506234352 52 0 0.0 0.0 0.00 0.00 0.00 96 1011.7
20260506233507 52 0 0.0 0.0 0.00 0.00 0.00 96 1011.7
20260506232542 51 0 0.0 0.0 0.00 0.00 0.00 97 1011.9
20260506231727 51 0 0.0 0.0 0.00 0.00 0.00 97 1011.9
20260506230839 51 0 0.0 0.0 0.00 0.00 0.00 97 1011.9
20260506230017 51 0 0.0 0.0 0.00 0.00 0.00 97 1011.9
20260506225117 51 0 0.0 0.0 0.00 0.00 0.00 97 1011.7
20260506224302 51 0 0.0 0.0 0.00 0.00 0.00 97 1011.4
20260506223432 52 0 0.0 0.0 0.00 0.00 0.00 96 1011.5
20260506222450 52 0 0.0 0.0 0.00 0.00 0.00 95 1011.6
20260506221559 52 0 0.0 0.0 0.00 0.00 0.00 95 1011.7
20260506220702 52 0 0.0 0.0 0.00 0.00 0.00 95 1011.7
20260506215837 52 0 0.0 0.0 0.00 0.00 0.00 95 1011.9
20260506215007 52 0 0.0 0.0 0.00 0.00 0.00 95 1011.3
20260506214052 52 0 0.0 0.0 0.00 0.00 0.00 95 1011.7
20260506213112 52 0 0.0 0.0 0.00 0.00 0.00 95 1011.6
20260506212237 52 0 0.0 0.0 0.00 0.00 0.00 95 1011.4
20260506211307 52 0 0.0 0.0 0.00 0.00 0.00 95 1011.5
20260506210322 52 0 0.0 0.0 0.00 0.00 0.00 95 1011.1
20260506205332 52 0 0.0 0.0 0.00 0.00 0.00 95 1011.1
20260506204502 52 0 0.0 0.0 0.00 0.00 0.00 94 1011.3
20260506203551 53 0 0.0 0.0 0.00 0.00 0.00 93 1011.3
20260506202657 53 0 0.0 0.0 0.00 0.00 0.00 94 1010.9
20260506201852 53 0 0.0 0.0 0.00 0.00 0.00 94 1010.7
20260506201042 53 0 0.0 0.0 0.00 0.00 0.00 94 1010.9
20260506200107 53 0 0.0 0.0 0.00 0.00 0.00 94 1010.9
20260506195252 53 0 0.0 0.0 0.00 0.00 0.00 94 1010.8
20260506194319 53 0 0.0 0.0 0.00 0.00 0.00 94 1010.7
20260506193327 53 0 0.0 0.0 0.00 0.00 0.00 95 1010.9
20260506192347 53 0 0.0 0.0 0.00 0.00 0.00 95 1011.0
20260506191527 53 0 0.0 0.0 0.00 0.00 0.00 95 1011.0
20260506190652 53 0 0.0 0.0 0.00 0.00 0.00 96 1011.2
20260506185729 52 0 0.0 0.0 0.00 0.00 0.00 96 1011.7
20260506184842 53 0 0.0 0.0 0.00 0.00 0.00 96 1011.7
20260506183932 53 0 0.0 0.0 0.00 0.00 0.00 94 1011.4
20260506183027 54 0 0.0 0.0 0.00 0.00 0.00 90 1011.0
20260506182032 54 0 0.0 0.0 0.00 0.00 0.00 89 1010.7
20260506181212 55 0 0.0 0.0 0.00 0.00 0.00 87 1011.1
20260506180327 55 0 0.0 0.0 0.00 0.00 0.00 83 1011.0
20260506175517 56 0 0.0 0.0 0.00 0.00 0.00 81 1011.1
20260506174631 56 0 0.0 0.0 0.00 0.00 0.00 79 1011.2
20260506173632 57 0 0.0 0.0 0.00 0.00 0.00 76 1011.2
20260506172717 58 0 0.0 0.0 0.00 0.00 0.00 72 1011.0
20260506171912 59 0 0.0 0.0 0.00 0.00 0.00 66 1010.7
20260506171057 59 0 0.0 0.0 0.00 0.00 0.00 61 1010.9
20260506170152 59 0 0.0 0.0 0.00 0.00 0.00 61 1010.6
20260506165227 60 0 0.0 0.0 0.00 0.00 0.00 61 1010.4
20260506164407 60 0 0.0 0.0 0.00 0.00 0.00 62 1010.5
20260506163432 61 0 0.0 0.0 0.00 0.00 0.00 60 1010.7
20260506162517 62 0 0.0 0.0 0.00 0.00 0.00 57 1010.7
20260506161622 63 0 0.0 0.0 0.00 0.00 0.00 54 1010.8
20260506160817 65 0 0.0 0.0 0.00 0.00 0.00 52 1010.9
20260506155942 66 0 0.0 0.0 0.00 0.00 0.00 49 1011.0
20260506155057 66 0 0.0 0.0 0.00 0.00 0.00 47 1011.1
20260506154132 67 0 0.0 0.0 0.00 0.00 0.00 43 1011.1
20260506153327 68 0 0.0 0.0 0.00 0.00 0.00 42 1011.0
20260506152332 69 0 0.0 0.0 0.00 0.00 0.00 42 1011.0
20260506151452 70 0 0.0 0.0 0.00 0.00 0.00 41 1011.0
20260506150637 71 0 0.0 0.0 0.00 0.00 0.00 41 1011.1
20260506145712 71 0 0.0 0.0 0.00 0.00 0.00 41 1011.2
20260506144847 71 0 0.0 0.0 0.00 0.00 0.00 43 1011.2
20260506143922 70 0 0.0 0.0 0.00 0.00 0.00 44 1011.3
20260506142942 69 0 0.0 0.0 0.00 0.00 0.00 44 1011.3
20260506142132 69 0 0.0 0.0 0.00 0.00 0.00 46 1011.3
20260506141319 69 0 0.0 0.0 0.00 0.00 0.00 45 1011.2
20260506140402 69 0 0.0 0.0 0.00 0.00 0.00 48 1011.2
20260506135439 68 0 0.0 0.0 0.00 0.00 0.00 49 1011.5
20260506134617 68 0 0.0 0.0 0.00 0.00 0.00 50 1011.6
20260506133639 67 0 0.0 0.0 0.00 0.00 0.00 51 1011.5
20260506132719 66 0 0.0 0.0 0.00 0.00 0.00 54 1011.5
20260506131902 65 0 0.0 0.0 0.00 0.00 0.00 54 1011.5
20260506131022 65 0 0.0 0.0 0.00 0.00 0.00 54 1011.7
20260506130157 64 0 0.0 0.0 0.00 0.00 0.00 56 1011.5
20260506125319 64 0 0.0 0.0 0.00 0.00 0.00 57 1011.8
20260506124432 64 0 0.0 0.0 0.00 0.00 0.00 57 1011.6
20260506123522 64 0 0.0 0.0 0.00 0.00 0.00 59 1011.6
20260506122557 64 0 0.0 0.0 0.00 0.00 0.00 61 1011.6
20260506121602 62 0 0.0 0.0 0.00 0.00 0.00 65 1011.7
20260506120732 62 0 0.0 0.0 0.00 0.00 0.00 66 1011.7
20260506115917 61 0 0.0 0.0 0.00 0.00 0.00 67 1011.9
20260506114917 61 0 0.0 0.0 0.00 0.00 0.00 68 1011.8
20260506113927 61 0 0.0 0.0 0.00 0.00 0.00 68 1011.7
20260506113032 60 0 0.0 0.0 0.00 0.00 0.00 70 1011.7
20260506112229 60 0 0.0 0.0 0.00 0.00 0.00 74 1011.7
20260506111352 59 0 0.0 0.0 0.00 0.00 0.00 74 1011.7
20260506110547 58 0 0.0 0.0 0.00 0.00 0.00 76 1011.6
20260506105707 58 0 0.0 0.0 0.00 0.00 0.00 75 1011.5
20260506104707 58 0 0.0 0.0 0.00 0.00 0.00 77 1011.7
20260506103707 58 0 0.0 0.0 0.00 0.00 0.00 79 1011.6
20260506102707 57 0 0.0 0.0 0.00 0.00 0.00 79 1011.6
20260506101839 57 0 0.0 0.0 0.00 0.00 0.00 79 1011.5
20260506100904 57 0 0.0 0.0 0.00 0.00 0.00 81 1011.6
20260506095959 57 0 0.0 0.0 0.00 0.00 0.00 81 1011.4
20260506095152 57 0 0.0 0.0 0.00 0.00 0.00 82 1011.5
20260506094326 56 0 0.0 0.0 0.00 0.00 0.00 83 1011.5
20260506093332 56 0 0.0 0.0 0.00 0.00 0.00 84 1011.5
20260506092332 56 0 0.0 0.0 0.00 0.00 0.00 84 1011.4
20260506091532 55 0 0.0 0.0 0.00 0.00 0.00 85 1011.4
20260506090559 55 0 0.0 0.0 0.00 0.00 0.00 86 1011.2
20260506085727 55 0 0.0 0.0 0.00 0.00 0.00 86 1011.4
20260506084832 55 0 0.0 0.0 0.00 0.00 0.00 85 1011.1
20260506083902 55 0 0.0 0.0 0.00 0.00 0.00 86 1011.1
20260506082947 56 0 0.0 0.0 0.00 0.00 0.00 86 1011.0
20260506082137 56 0 0.0 0.0 0.00 0.00 0.00 86 1011.0
20260506081259 56 0 0.0 0.0 0.00 0.00 0.00 88 1010.9
20260506080332 55 0 0.0 0.0 0.00 0.00 0.00 88 1010.8
20260506072737 54 0 0.0 0.0 0.00 0.00 0.00 92 1010.7
20260506071837 53 0 0.0 0.0 0.00 0.00 0.00 92 1010.6
20260506070837 53 0 0.0 0.0 0.00 0.00 0.00 93 1010.3
20260506061602 54 0 0.0 0.0 0.00 0.00 0.00 93 1010.2
20260506060757 54 0 0.0 0.0 0.00 0.00 0.00 93 1010.1
20260506050442 53 0 0.0 0.0 0.00 0.00 0.00 96 1009.6
20260506044642 53 0 0.0 0.0 0.00 0.00 0.00 97 1009.7
20260506043737 53 0 0.0 0.0 0.00 0.00 0.00 97 1009.5
20260506042829 52 0 0.0 0.0 0.00 0.00 0.00 97 1009.6
20260506041852 52 0 0.0 0.0 0.00 0.00 0.00 96 1009.5
20260506040947 52 0 0.0 0.0 0.00 0.00 0.00 95 1009.6
20260506035232 53 0 0.0 0.0 0.00 0.00 0.00 92 1009.4
20260506034427 53 0 0.0 0.0 0.00 0.00 0.00 90 1009.3
20260506033447 53 0 0.0 0.0 0.00 0.00 0.00 88 1009.4
20260506032647 53 0 0.0 0.0 0.00 0.00 0.00 88 1009.4
20260506031702 53 0 0.0 0.0 0.00 0.00 0.00 89 1009.4
20260506030727 53 0 0.0 0.0 0.00 0.00 0.00 89 1009.4
20260506025730 53 0 0.0 0.0 0.00 0.00 0.00 89 1009.5
20260506024919 53 0 0.0 0.0 0.00 0.00 0.00 90 1009.5
20260506024032 53 0 0.0 0.0 0.00 0.00 0.00 91 1009.5
20260506023032 53 0 0.0 0.0 0.00 0.00 0.00 91 1009.6
20260506022152 53 0 0.0 0.0 0.00 0.00 0.00 92 1009.5
20260506021152 53 0 0.0 0.0 0.00 0.00 0.00 93 1009.6
20260506020242 53 0 0.0 0.0 0.00 0.00 0.00 93 1009.8
20260506015422 53 0 0.0 0.0 0.00 0.00 0.00 93 1010.1
20260506014457 53 0 0.0 0.0 0.00 0.00 0.00 92 1010.3
20260506013527 53 0 0.0 0.0 0.00 0.00 0.00 91 1010.1
20260506012537 53 0 0.0 0.0 0.00 0.00 0.00 89 1010.2
20260506011657 53 0 0.0 0.0 0.00 0.00 0.00 88 1010.2
20260506005859 53 0 0.0 0.0 0.00 0.00 0.00 89 1010.2
20260506005032 54 0 0.0 0.0 0.00 0.00 0.00 91 1010.3
20260506004227 54 0 0.0 0.0 0.00 0.00 0.00 92 1010.2
20260506003307 54 0 0.0 0.0 0.00 0.00 0.00 93 1010.1